Regional Weather Roundup
Issued by NWS

Home | Current Version | Previous Version | Graphics & Text | Print | Product List | Glossary On
Versions: 1 2 3 4 5 6 7 8 9 10 11 12 13 14 15 16 17 18 19 20 21 22 23 24 25 26 27 28 29 30 31 32 33 34 35 36 37 38 39 40 41 42 43 44 45 46 47 48 49 50
000
ASUS43 KMPX 190501
RWRMN
WEATHER ROUNDUP FOR MINNESOTA
NATIONAL WEATHER SERVICE TWIN CITIES/CHANHASSEN MN
1200 AM CDT TUE SEP 19 2017


NOTE: "FAIR" INDICATES FEW OR NO CLOUDS BELOW 12,000 FEET WITH NO
SIGNIFICANT WEATHER AND/OR OBSTRUCTIONS TO VISIBILITY. N/A MEANS
CURRENT SKY AND/OR WEATHER CONDITIONS ARE NOT AVAILABLE.

MNZ060>063-068>070-190600-
   Twin Cities Metro

CITY           SKY/WX    TMP DP  RH WIND       PRES   REMARKS
TWIN CITIES    CLOUDY    59  57  93 SE8       29.96S
ST PAUL        CLOUDY    58  56  93 SE7       29.97S
CRYSTAL        CLOUDY    59  53  80 SE6       29.94F
BLAINE         CLOUDY    59  57  94 SE3       29.96S
LAKEVILLE      CLOUDY    55  55 100 CALM      29.95F
EDEN PRAIRIE   CLOUDY    59  56  89 E7        29.94S
SOUTH ST PAUL  CLOUDY    57  57  97 CALM      29.96F
LAKE ELMO      CLOUDY    57  55  94 SE3       29.97F
$$
MNZ001>005-007-008-013>017-022>024-027-028-190600-
   Northwest Minnesota

CITY           SKY/WX    TMP DP  RH WIND       PRES   REMARKS
BEMIDJI        CLOUDY    55  53  95 S13       29.90S
HALLOCK        PTCLDY    55  54  94 SE9       29.84F
ROSEAU           N/A     57  54  88 S5        29.89R
WARROAD        CLOUDY    55  52  88 SE6       29.89S
CROOKSTON      MOCLDY    57  55  94 SE7       29.86R
FOSSTON        CLOUDY    55  54  94 SE5       29.89R
DETROIT LAKES  CLOUDY    55  55 100 S14       29.89R
MOORHEAD       CLOUDY    61  57  88 SE14      29.85R
PARK RAPIDS    CLOUDY    56  53  90 SE10      29.91S
MAHNOMEN       CLOUDY    57  55  92 SE9       29.87R
$$
MNZ006-009>011-018-025>026-190600-
   North Central Minnesota

CITY           SKY/WX    TMP DP  RH WIND       PRES   REMARKS
BAUDETTE       CLOUDY    56  53  90 SE8       29.91S
FLAG ISLAND    MOCLDY    57  54  88 SE9       29.88S
INTL FALLS     CLOUDY    55  50  83 SE7       29.94F
WASKISH        CLOUDY    55  54  94 SE6       29.91S
BIG FORK       CLOUDY    55  52  88 S7        29.94S
LONGVILLE      CLOUDY    54  52  94 SE6       29.93S
GRAND RAPIDS   CLOUDY    53  50  89 SE7       29.97F
CRANE LAKE     CLOUDY    54  52  94 S5        29.98F
ORR            CLOUDY    54  48  82 S6        29.94F
COOK           CLOUDY    54  48  82 S7        29.98S
WALKER         CLOUDY    54  52  91 SE7       29.91F
$$
MNZ012-019>021-037-190600-
   Northeast Minnesota

CITY           SKY/WX    TMP DP  RH WIND       PRES   REMARKS
DULUTH         CLOUDY    54  51  90 SE9       29.99F
ELY            CLOUDY    54  48  82 SE7       29.99F
HIBBING        CLOUDY    51  48  89 SE6       29.97F
EVELETH        CLOUDY    53  49  86 SE3       29.99F
DULUTH HARBOR  CLOUDY    59  54  82 E3        30.00F
SILVER BAY     CLOUDY    55  54  94 CALM      30.00F
GRAND MARAIS     N/A     58  55  90 CALM      30.04S
$$
MNZ029>031-032-039>041-046>048-054>057-064-190600-
   West Central Minnesota

CITY           SKY/WX    TMP DP  RH WIND       PRES   REMARKS
FERGUS FALLS   CLOUDY    59  59 100 SE12      29.87S
WHEATON        CLOUDY    61  57  88 SE10      29.86F
MORRIS         CLOUDY    61  59  94 SE12      29.87S FOG
ALEXANDRIA     FOG       56  56 100 SE12      29.91F VSB 3/4
ELBOW LAKE     CLOUDY    58  58  99 E15       29.88S
WADENA         CLOUDY    54  54 100 SE8       29.90F
GLENWOOD       FOG       57  55  94 SE8       29.91F VSB 1/4
APPLETON       CLOUDY    63  59  88 SE14      29.86F
BENSON         CLOUDY    61  59  94 S9        29.90F FOG
ORTONVILLE     CLOUDY    61  59  94 NE9       29.85S
MADISON        CLOUDY    64  64 100 SE12      29.86F FOG
WILLMAR        CLOUDY    61  61 100 SE8       29.92F FOG
$$
MNZ033>034-036-042>043-049>051-058-059-190600-
   Central Minnesota

CITY           SKY/WX    TMP DP  RH WIND       PRES   REMARKS
ST CLOUD       CLOUDY    54  54 100 E5        29.94F FOG
PAYNESVILLE    FOG       56  56 100 SE9       29.93F VSB 3/4
AITKIN         CLOUDY    52  50  93 SE7       29.95S FOG
PINE RIVER     CLOUDY    52  48  87 SE10      29.96F
BRAINERD       CLOUDY    53  52  96 SE6       29.95F
STAPLES        CLOUDY    54  54 100 SE10      29.92S
LONG PRAIRIE   FOG       54  54 100 E6        29.93S VSB 3/4
LITTLE FALLS   CLOUDY    52  50  93 SE6       29.94F FOG
LITCHFIELD     FOG       59  59 100 SE6       29.93F VSB 3/4
BUFFALO        CLOUDY    57  55  93 E3        29.95F
MAPLE LAKE     CLOUDY    58  57  97 SE5       29.95S FOG
HUTCHINSON     CLOUDY    59  59  99 E6        29.94S FOG
$$
MNZ037-044-045-052-053-190600-
   East Central Minnesota

CITY           SKY/WX    TMP DP  RH WIND       PRES   REMARKS
PRINCETON      DRIZZLE   55  55 100 E5        29.95F
MORA           DRIZZLE   54  52  94 CALM      29.99S
RUSH CITY      CLOUDY    56  53  90 CALM      29.98S
MOOSE LAKE     CLOUDY    54  50  87 CALM      29.97F FOG
HINCKLEY       CLOUDY    54  54 100 CALM      29.98S
CLOQUET        CLOUDY    54  48  82 CALM      29.99F
MCGREGOR       CLOUDY    52  50  93 CALM      29.97F
$$
MNZ071>073-080-081-089-090-097-098-190600-
   Southwest Minnesota

CITY           SKY/WX    TMP DP  RH WIND       PRES   REMARKS
MONTEVIDEO     CLOUDY    63  61  94 S8        29.88F FOG
GRANITE FALLS  CLOUDY    63  62  97 SE8       29.90F FOG
CANBY          CLOUDY    64  63  96 E9        29.87F FOG
MARSHALL       FOG       62  62 100 SE7       29.88F VSB 3/4
REDWOOD FALLS  FOG       61  60  97 E6        29.90F VSB 1/2
OLIVIA         FOG       59  57  94 SE5       29.90F VSB 1
PIPESTONE      CLOUDY    64  63  94 S8        29.88F FOG
WORTHINGTON    FOG       64  64 100 S8        29.91F VSB 1
JACKSON        CLOUDY    63  63 100 CALM      29.93S FOG
TRACY          FOG       64  64 100 SE6       29.89F VSB 1/2
SLAYTON        DRZL/FOG  63  62  95 SE6       29.91F VSB 1/4
$$
MNZ065>067-074>077-082>085-091>093-190600-
   South Central Minnesota

CITY           SKY/WX    TMP DP  RH WIND       PRES   REMARKS
MANKATO        CLOUDY    61  59  93 SE8       29.93F
NEW ULM        CLOUDY    61  61 100 SE6       29.92S
ST JAMES       CLOUDY    63  63 100 SE5       29.93S FOG
FAIRMONT       CLOUDY    61  60  97 SE5       29.93F FOG
GLENCOE        CLOUDY    60  60 100 E6        29.93F
FARIBAULT      CLOUDY    59  57  94 CALM      29.95F
OWATONNA       MOCLDY    61  57  88 SE6       29.95S
WASECA         CLOUDY    59  59 100 SE5       29.95S
ALBERT LEA     CLOUDY    63  63 100 SE5       29.95S
$$
MNZ078>079-086>088-094>096-190600-
   Southeast Minnesota

CITY           SKY/WX    TMP DP  RH WIND       PRES   REMARKS
ROCHESTER      CLOUDY    57  56  96 SE7       29.97F
RED WING       RAIN      57  54  88 E3        29.96F
STANTON        CLOUDY    59  56  90 CALM      29.94F
DODGE CENTER   CLOUDY    57  57 100 E5        29.97S
WINONA         CLOUDY    59  57  94 CALM      29.97F
AUSTIN         CLOUDY    61  57  88 SE3       29.95F
PRESTON        CLOUDY    56  55  95 CALM      29.98S FOG
$$
ABBREVIATIONS USED IN REMARKS
   TC - TEMPERATURES IN CELSIUS
  WCI - WIND CHILL INDEX
   HX - HEAT INDEX
  VSB - VISIBILITY
$$



USA.gov is the U.S. government's official web portal to all federal, state and local government web resources and services.